Location: NJAA Observatory
(40.6819°N, 74.8979°W)
Time: 14:30:31
(UTC-04:00)

Iridium 56 - Visible Passes

Search period start: 20 August 2014 00:00
Search period end: 30 August 2014 00:00
Orbit: 776 x 779 km, 86.4° (Epoch: 19 August)

Date Brightness Start Highest point End Pass type
(mag) Time Alt. Az. Time Alt. Az. Time Alt. Az.
23 Aug 9.2 05:30:56 10° E 05:32:19 11° ENE 05:33:41 10° ENE visible
26 Aug 8.6 05:29:02 10° ESE 05:32:11 16° ENE 05:35:21 10° NE visible
29 Aug 8.2 05:28:04 10° SE 05:32:07 24° E 05:36:11 10° NNE visible
